H1 CPF 2 NER 2025 8 15 9 227 01 glonass141 H2 1908801 9141 44850 2025 8 15 0 0 0 2025 8 18 23 45 0 900 1 1 0 0 0 1 H9 10 0 60902 0.00000 0 -19408.682 17154445.183 -18862142.219 10 0 60902 900.00000 0 -963739.687 19152842.942 -16806178.476 10 0 60902 1800.00000 0 -1642849.838 20967456.927 -14423438.383 10 0 60902 2700.00000 0 -2074621.400 22537205.925 -11760338.110 10 0 60902 3600.00000 0 -2288273.520 23807844.259 -8868716.454 10 0 60902 4500.00000 0 -2322871.441 24734170.701 -5804819.381 10 0 60902 5400.00000 0 -2225420.454 25281874.641 -2628200.759 10 0 60902 6300.00000 0 -2048626.698 25428942.792 599438.797 10 0 60902 7200.00000 0 -1848420.727 25166568.224 3815451.911 10 0 60902 8100.00000 0 -1681349.479 24499524.637 6957459.605 10 0 60902 9000.00000 0 -1601947.413 23445991.158 9964557.953 10 0 60902 9900.00000 0 -1660198.114 22036835.991 12778492.844 10 0 60902 10800.00000 0 -1899193.455 20314389.703 15344780.548 10 0 60902 11700.00000 0 -2353088.785 18330759.937 17613753.006 10 0 60902 12600.00000 0 -3045439.968 16145758.166 19541508.536 10 0 60902 13500.00000 0 -3987991.992 13824524.708 21090750.664 10 0 60902 14400.00000 0 -5179970.016 11434950.338 22231500.019 10 0 60902 15300.00000 0 -6607902.905 9045000.791 22941666.672 10 0 60902 16200.00000 0 -8245987.351 6720054.128 23207472.800 10 0 60902 17100.00000 0 -10056978.512 4520360.111 23023718.187 10 0 60902 18000.00000 0 -11993571.450 2498725.652 22393883.734 10 0 60902 18900.00000 0 -14000217.523 698521.059 21330070.821 10 0 60902 19800.00000 0 -16015301.877 -847911.269 19852777.158 10 0 60902 20700.00000 0 -17973593.080 -2120380.387 17990512.495 10 0 60902 21600.00000 0 -19808864.378 -3111456.418 15779260.387 10 0 60902 22500.00000 0 -21456578.445 -3826541.082 13261795.033 10 0 60902 23400.00000 0 -22856524.244 -4283396.237 10486864.991 10 0 60902 24300.00000 0 -23955295.956 -4511150.061 7508258.308 10 0 60902 25200.00000 0 -24708509.877 -4548822.491 4383766.154 10 0 60902 26100.00000 0 -25082665.496 -4443431.831 1174064.444 10 0 60902 27000.00000 0 -25056571.454 -4247762.520 -2058465.075 10 0 60902 27900.00000 0 -24622275.025 -4017888.664 -5250951.198 10 0 60902 28800.00000 0 -23785454.539 -3810558.765 -8341262.803 10 0 60902 29700.00000 0 -22565256.788 -3680553.332 -11269226.807 10 0 60902 30600.00000 0 -20993585.056 -3678128.534 -13977809.773 10 0 60902 31500.00000 0 -19113866.813 -3846655.669 -16414239.003 10 0 60902 32400.00000 0 -16979352.305 -4220557.927 -18531040.248 10 0 60902 33300.00000 0 -14651015.291 -4823633.388 -20286970.953 10 0 60902 34200.00000 0 -12195144.057 -5667836.619 -21647830.104 10 0 60902 35100.00000 0 -9680723.955 -6752571.686 -22587128.558 10 0 60902 36000.00000 0 -7176721.306 -8064527.510 -23086606.590 10 0 60902 36900.00000 0 -4749382.609 -9578063.387 -23136588.639 10 0 60902 37800.00000 0 -2459661.976 -11256129.031 -22736168.542 10 0 60902 38700.00000 0 -360884.071 -13051680.862 -21893222.021 10 0 60902 39600.00000 0 1503260.332 -14909535.168 -20624246.577 10 0 60902 40500.00000 0 3100303.379 -16768580.315 -18954032.359 10 0 60902 41400.00000 0 4410108.649 -18564255.048 -16915170.905 10 0 60902 42300.00000 0 5425454.411 -20231188.668 -14547411.801 10 0 60902 43200.00000 0 6152069.180 -21705892.130 -11896880.313 10 0 60902 44100.00000 0 6608120.234 -22929386.995 -9015171.723 10 0 60902 45000.00000 0 6823178.773 -23849661.896 -5958340.581 10 0 60902 45900.00000 0 6836707.462 -24423853.541 -2785805.117 10 0 60902 46800.00000 0 6696136.028 -24620061.049 440811.401 10 0 60902 47700.00000 0 6454607.785 -24418717.963 3658879.286 10 0 60902 48600.00000 0 6168493.476 -23813465.012 6805977.429 10 0 60902 49500.00000 0 5894778.331 -22811487.781 9821100.964 10 0 60902 50400.00000 0 5688433.111 -21433305.852 12645838.203 10 0 60902 51300.00000 0 5599880.191 -19712022.887 15225494.415 10 0 60902 52200.00000 0 5672661.329 -17692069.427 17510141.357 10 0 60902 53100.00000 0 5941405.004 -15427491.058 19455573.096 10 0 60902 54000.00000 0 6430178.426 -12979853.069 21024150.746 10 0 60902 54900.00000 0 7151293.159 -10415848.248 22185520.951 10 0 60902 55800.00000 0 8104614.403 -7804706.315 22917195.348 10 0 60902 56700.00000 0 9277403.176 -5215511.328 23204980.784 10 0 60902 57600.00000 0 10644698.701 -2714536.869 23043252.675 10 0 60902 58500.00000 0 12170226.084 -362708.046 22435066.519 10 0 60902 59400.00000 0 13807792.826 1786705.955 21392105.323 10 0 60902 60300.00000 0 15503117.514 3690074.390 19934463.384 10 0 60902 61200.00000 0 17196016.037 5314981.244 18090269.706 10 0 60902 62100.00000 0 18822855.681 6641330.553 15895157.096 10 0 60902 63000.00000 0 20319175.860 7661935.182 13391585.805 10 0 60902 63900.00000 0 21622366.807 8382564.630 10628033.406 10 0 60902 64800.00000 0 22674294.474 8821449.876 7658065.311 10 0 60902 65700.00000 0 23423761.439 9008265.881 4539302.896 10 0 60902 66600.00000 0 23828699.868 8982634.412 1332308.607 10 0 60902 67500.00000 0 23858003.220 8792210.222 -1900590.542 10 0 60902 68400.00000 0 23492918.207 8490431.584 -5096518.085 10 0 60902 69300.00000 0 22727936.747 8134030.703 -8193277.593 10 0 60902 70200.00000 0 21571148.690 7780410.105 -11130571.780 10 0 60902 71100.00000 0 20044038.901 7484997.116 -13851186.461 10 0 60902 72000.00000 0 18180735.911 7298689.702 -16302115.155 10 0 60902 72900.00000 0 16026742.752 7265503.193 -18435601.395 10 0 60902 73800.00000 0 13637202.603 7420518.906 -20210077.524 10 0 60902 74700.00000 0 11074771.732 7788222.744 -21590980.994 10 0 60902 75600.00000 0 8407188.783 8381305.190 -22551431.823 10 0 60902 76500.00000 0 5704642.254 9199974.317 -23072757.847 10 0 60902 77400.00000 0 3037046.379 10231811.532 -23144857.557 10 0 60902 78300.00000 0 471339.281 11452176.587 -22766393.694 10 0 60902 79200.00000 0 -1931083.949 12825145.068 -21944814.155 10 0 60902 80100.00000 0 -4116696.468 14304938.896 -20696200.257 10 0 60902 81000.00000 0 -6041826.923 15837789.549 -19044945.750 10 0 60902 81900.00000 0 -7674226.815 17364155.401 -17023273.311 10 0 60902 82800.00000 0 -8994153.960 18821199.591 -14670598.435 10 0 60902 83700.00000 0 -9994928.511 20145423.933 -12032753.607 10 0 60902 84600.00000 0 -10682940.303 21275347.819 -9161088.354 10 0 60902 85500.00000 0 -11077109.394 22154119.233 -6111463.278 10 0 60903 0.00000 0 -11207824.700 22731947.988 -2943158.458 10 0 60903 900.00000 0 -11115407.523 22968259.205 282283.718 10 0 60903 1800.00000 0 -10848166.492 22833476.021 3502254.054 10 0 60903 2700.00000 0 -10460127.705 22310358.059 6654292.447 10 0 60903 3600.00000 0 -10008536.757 21394839.079 9677296.216 10 0 60903 4500.00000 0 -9551238.904 20096329.568 12512699.134 10 0 60903 5400.00000 0 -9144048.089 18437471.965 15105598.388 10 0 60903 6300.00000 0 -8838215.671 16453359.054 17405808.272 10 0 60903 7200.00000 0 -8678105.057 14190248.233 19368821.090 10 0 60903 8100.00000 0 -8699169.536 11703824.997 20956657.743 10 0 60903 9000.00000 0 -8926317.721 9057087.300 22138592.752 10 0 60903 9900.00000 0 -9372734.773 6317937.789 22891740.796 10 0 60903 10800.00000 0 -10039208.666 3556582.572 23201494.432 10 0 60903 11700.00000 0 -10913989.911 842842.889 23061805.256 10 0 60903 12600.00000 0 -11973191.212 -1756510.475 22475303.384 10 0 60903 13500.00000 0 -13181711.313 -4180291.195 21453252.889 10 0 60903 14400.00000 0 -14494645.764 -6375196.254 20015343.511 10 0 60903 15300.00000 0 -15859127.075 -8297775.487 18189321.781 10 0 60903 16200.00000 0 -17216518.811 -9915990.923 16010467.478 10 0 60903 17100.00000 0 -18504873.201 -11210301.670 13520924.134 10 0 60903 18000.00000 0 -19661550.310 -12174229.364 10768895.163 10 0 60903 18900.00000 0 -20625889.589 -12814380.569 7807719.864 10 0 60903 19800.00000 0 -21341821.692 -13149925.094 4694846.137 10 0 60903 20700.00000 0 -21760310.324 -13211551.884 1490719.194 10 0 60903 21600.00000 0 -21841520.364 -13039946.305 -1742392.441 10 0 60903 22500.00000 0 -21556619.609 -12683853.060 -4941610.727 10 0 60903 23400.00000 0 -20889136.454 -12197806.744 -8044677.455 10 0 60903 24300.00000 0 -19835814.522 -11639626.559 -10991174.458 10 0 60903 25200.00000 0 -18406926.380 -11067781.959 -13723709.857 10 0 60903 26100.00000 0 -16626031.494 -10538741.757 -16189046.100 10 0 60903 27000.00000 0 -14529187.210 -10104420.066 -18339146.783 10 0 60903 27900.00000 0 -12163644.863 -9809828.345 -20132120.946 10 0 60903 28800.00000 0 -9586085.031 -9691034.043 -21533045.704 10 0 60903 29700.00000 0 -6860465.512 -9773513.093 -22514650.803 10 0 60903 30600.00000 0 -4055571.883 -10070966.658 -23057851.549 10 0 60903 31500.00000 0 -1242373.079 -10584652.616 -23152119.768 10 0 60903 32400.00000 0 1508707.620 -11303260.244 -22795685.798 10 0 60903 33300.00000 0 4130492.389 -12203333.425 -21995567.921 10 0 60903 34200.00000 0 6561607.077 -13250224.382 -20767429.066 10 0 60903 35100.00000 0 8748791.670 -14399537.375 -19135264.052 10 0 60903 36000.00000 0 10648867.480 -15599001.148 -17130923.910 10 0 60903 36900.00000 0 12230280.067 -16790690.693 -14793487.042 10 0 60903 37800.00000 0 13474154.970 -17913504.245 -12168489.986 10 0 60903 38700.00000 0 14374823.896 -18905790.672 -9307033.218 10 0 60903 39600.00000 0 14939801.331 -19708016.162 -6264780.012 10 0 60903 40500.00000 0 15189214.736 -20265357.592 -3100868.343 10 0 60903 41400.00000 0 15154714.396 -20530113.208 123242.472 10 0 60903 42300.00000 0 14877910.805 -20463829.123 3344967.470 10 0 60903 43200.00000 0 14408407.139 -20039052.314 6501810.500 10 0 60903 44100.00000 0 13801511.091 -19240636.670 9532573.703 10 0 60903 45000.00000 0 13115723.493 -18066547.563 12378538.573 10 0 60903 45900.00000 0 12410110.025 -16528131.467 14984596.044 10 0 60903 46800.00000 0 11741666.790 -14649839.515 17300304.335 10 0 60903 47700.00000 0 11162790.306 -12468416.493 19280854.905 10 0 60903 48600.00000 0 10718957.711 -10031588.801 20887928.914 10 0 60903 49500.00000 0 10446713.872 -7396305.347 22090428.790 10 0 60903 50400.00000 0 10372049.137 -4626603.569 22865071.868 10 0 60903 51300.00000 0 10509235.169 -1791187.858 23196835.656 10 0 60903 52200.00000 0 10860167.300 1039180.749 23079246.831 10 0 60903 53100.00000 0 11414241.035 3794377.071 22514508.735 10 0 60903 54000.00000 0 12148768.329 6407576.663 21513464.880 10 0 60903 54900.00000 0 13029917.070 8817784.238 20095398.626 10 0 60903 55800.00000 0 14014135.590 10972122.139 18287672.057 10 0 60903 56700.00000 0 15050003.814 12827784.931 16125209.830 10 0 60903 57600.00000 0 16080434.770 14353579.546 13649836.566 10 0 60903 58500.00000 0 17045135.179 15530987.165 10909479.244 10 0 60903 59400.00000 0 17883222.539 16354702.555 7957248.696 10 0 60903 60300.00000 0 18535888.984 16832628.106 4850416.943 10 0 60903 61200.00000 0 18948999.523 16985322.533 1649309.531 10 0 60903 62100.00000 0 19075514.458 16844927.106 -1583865.936 10 0 60903 63000.00000 0 18877632.577 16453614.479 -4786232.181 10 0 60903 63900.00000 0 18328563.094 15861625.542 -7895471.432 10 0 60903 64800.00000 0 17413849.717 15124977.523 -10851046.656 10 0 60903 65700.00000 0 16132189.047 14302940.757 -13595390.057 10 0 60903 66600.00000 0 14495706.887 13455391.611 -16075034.536 10 0 60903 67500.00000 0 12529679.162 12640154.502 -18241665.028 10 0 60903 68400.00000 0 10271707.700 11910446.402 -20053068.318 10 0 60903 69300.00000 0 7770384.469 11312532.901 -21473962.066 10 0 60903 70200.00000 0 5083499.479 10883695.641 -22476686.476 10 0 60903 71100.00000 0 2275866.942 10650597.654 -23041744.918 10 0 60903 72000.00000 0 -583139.610 10628115.927 -23158182.996 10 0 60903 72900.00000 0 -3422240.443 10818690.512 -22823798.889 10 0 60903 73800.00000 0 -6170980.335 11212217.454 -22045181.242 10 0 60903 74700.00000 0 -8762423.153 11786489.612 -20837574.264 10 0 60903 75600.00000 0 -11135698.304 12508166.169 -19224573.144 10 0 60903 76500.00000 0 -13238293.445 13334229.238 -17237656.194 10 0 60903 77400.00000 0 -15027998.681 14213865.344 -14915563.303 10 0 60903 78300.00000 0 -16474422.252 15090691.658 -12303533.314 10 0 60903 79200.00000 0 -17560015.892 15905232.330 -9452415.654 10 0 60903 80100.00000 0 -18280568.655 16597539.813 -6417674.051 10 0 60903 81000.00000 0 -18645150.488 17109850.069 -3258302.277 10 0 60903 81900.00000 0 -18675509.960 17389159.284 -35673.496 10 0 60903 82800.00000 0 -18404953.403 17389613.262 3187653.904 10 0 60903 83700.00000 0 -17876754.462 17074608.726 6349150.429 10 0 60903 84600.00000 0 -17142162.504 16418518.151 9387525.803 10 0 60903 85500.00000 0 -16258094.890 15407965.750 12243912.030 10 0 60904 0.00000 0 -15284611.039 14042601.296 14862996.335 10 0 60904 900.00000 0 -14282274.277 12335338.652 17194084.009 10 0 60904 1800.00000 0 -13309513.521 10312050.785 19192067.951 10 0 60904 2700.00000 0 -12420093.330 8010731.267 20818291.880 10 0 60904 3600.00000 0 -11660798.966 5480158.243 22041288.134 10 0 60904 4500.00000 0 -11069432.075 2778114.843 22837378.360 10 0 60904 5400.00000 0 -10673200.133 -30761.266 23191126.256 10 0 60904 6300.00000 0 -10487566.342 -2877411.545 23095634.364 10 0 60904 7200.00000 0 -10515607.662 -5690974.284 22552679.547 10 0 60904 8100.00000 0 -10747907.767 -8401479.679 21572684.524 10 0 60904 9000.00000 0 -11162989.732 -10942512.322 20174525.517 10 0 60904 9900.00000 0 -11728270.988 -13253732.150 18385178.871 10 0 60904 10800.00000 0 -12401501.481 -15283150.470 16239212.313 10 0 60904 11700.00000 0 -13132625.772 -16989067.238 13778129.290 10 0 60904 12600.00000 0 -13865991.876 -18341589.343 11049577.677 10 0 60904 13500.00000 0 -14542814.821 -19323666.618 8106436.845 10 0 60904 14400.00000 0 -15103791.635 -19931602.035 5005799.704 10 0 60904 15300.00000 0 -15491757.591 -20175014.254 1807868.737 10 0 60904 16200.00000 0 -15654271.093 -20076253.654 -1425212.844 10 0 60904 17100.00000 0 -15546017.101 -19669295.980 -4630572.037 10 0 60904 18000.00000 0 -15130926.089 -18998160.009 -7745834.985 10 0 60904 18900.00000 0 -14383917.262 -18114915.968 -10710349.182 10 0 60904 19800.00000 0 -13292190.446 -17077369.118 -13466374.154 10 0 60904 20700.00000 0 -11856010.111 -15946516.855 -15960216.264 10 0 60904 21600.00000 0 -10088946.564 -14783887.575 -18143284.475 10 0 60904 22500.00000 0 -8017562.453 -13648874.513 -19973045.584 10 0 60904 23400.00000 0 -5680556.354 -12596178.035 -21413859.550 10 0 60904 24300.00000 0 -3127398.329 -11673465.079 -22437678.216 10 0 60904 25200.00000 0 -416513.830 -10919344.997 -23024593.583 10 0 60904 26100.00000 0 2386908.460 -10361747.415 -23163224.986 10 0 60904 27000.00000 0 5213393.556 -10016770.414 -22850937.845 10 0 60904 27900.00000 0 7991838.617 -9888047.203 -22093890.056 10 0 60904 28800.00000 0 10652242.092 -9966657.292 -20906905.564 10 0 60904 29700.00000 0 13128389.973 -10231585.045 -19313178.012 10 0 60904 30600.00000 0 15360387.514 -10650705.238 -17343810.732 10 0 60904 31500.00000 0 17296931.312 -11182252.938 -15037202.517 10 0 60904 32400.00000 0 18897227.816 -11776714.580 -12438291.626 10 0 60904 33300.00000 0 20132479.219 -12379059.364 -9597673.237 10 0 60904 34200.00000 0 20986875.999 -12931215.802 -6570608.081 10 0 60904 35100.00000 0 21458056.202 -13374688.057 -3415942.081 10 0 60904 36000.00000 0 21557014.009 -13653200.962 -194958.494 10 0 60904 36900.00000 0 21307463.287 -13715261.655 3029814.593 10 0 60904 37800.00000 0 20744684.638 -13516529.474 6195817.910 10 0 60904 38700.00000 0 19913905.970 -13021894.150 9241672.063 10 0 60904 39600.00000 0 18868285.989 -12207174.798 12108362.459 10 0 60904 40500.00000 0 17666586.217 -11060368.312 14740375.490 10 0 60904 41400.00000 0 16370629.805 -9582394.802 17086764.488 10 0 60904 42300.00000 0 15042653.810 -7787308.685 19102125.665 10 0 60904 43200.00000 0 13742665.550 -5701966.285 20747466.159 10 0 60904 44100.00000 0 12525913.048 -3365163.146 21990948.582 10 0 60904 45000.00000 0 11440574.464 -826276.078 22808498.778 10 0 60904 45900.00000 0 10525762.051 1856534.915 23184266.080 10 0 60904 46800.00000 0 9809923.054 4618491.713 23110927.934 10 0 60904 47700.00000 0 9309703.521 7390642.090 22589833.390 10 0 60904 48600.00000 0 9029321.950 10102483.173 21630982.719 10 0 60904 49500.00000 0 8960478.766 12684657.426 20252843.050 10 0 60904 50400.00000 0 9082805.572 15071610.885 18482002.809 10 0 60904 51300.00000 0 9364835.863 17204104.646 16352670.420 10 0 60904 52200.00000 0 9765457.203 19031476.161 13906025.619 10 0 60904 53100.00000 0 10235784.677 20513556.642 11189434.521 10 0 60904 54000.00000 0 10721377.583 21622164.710 8255542.297 10 0 60904 54900.00000 0 11164706.476 22342113.582 5161259.939 10 0 60904 55800.00000 0 11507766.701 22671689.063 1966664.053 10 0 60904 56700.00000 0 11694727.741 22622577.634 -1266169.311 10 0 60904 57600.00000 0 11674505.683 22219247.009 -4474374.077 10 0 60904 58500.00000 0 11403148.780 21497804.684 -7595522.759 10 0 60904 59400.00000 0 10845933.635 20504382.301 -10568849.578 10 0 60904 60300.00000 0 9979081.492 19293113.925 -13336443.280 10 0 60904 61200.00000 0 8791020.123 17923793.811 -15844385.259 10 0 60904 62100.00000 0 7283136.007 16459312.998 -18043809.765 10 0 60904 63000.00000 0 5469983.247 14962983.532 -19891864.583 10 0 60904 63900.00000 0 3378938.767 13495863.910 -21352552.712 10 0 60904 64800.00000 0 1049316.969 12114199.137 -22397438.163 10 0 60904 65700.00000 0 -1469020.063 10867083.687 -23006201.922 10 0 60904 66600.00000 0 -4117499.235 9794446.041 -23167037.210 10 0 60904 67500.00000 0 -6831043.630 8925439.469 -22876876.617 10 0 60904 68400.00000 0 -9540558.226 8277306.326 -22141446.950 10 0 60904 69300.00000 0 -12175590.470 7854762.857 -20975151.235 10 0 60904 70200.00000 0 -14667054.806 7649929.304 -19400780.579 10 0 60904 71100.00000 0 -16949907.684 7642806.963 -17449062.011 10 0 60904 72000.00000 0 -18965661.698 7802280.668 -15158051.605 10 0 60904 72900.00000 0 -20664634.449 8087602.945 -12572385.169 10 0 60904 73800.00000 0 -22007838.939 8450295.823 -9742401.585 10 0 60904 74700.00000 0 -22968437.464 8836388.677 -6723156.408 10 0 60904 75600.00000 0 -23532699.437 9188896.480 -3573345.429 10 0 60904 76500.00000 0 -23700424.497 9450432.823 -354159.647 10 0 60904 77400.00000 0 -23484814.725 9565846.637 2871905.581 10 0 60904 78300.00000 0 -22911802.996 9484770.812 6042263.716 10 0 60904 79200.00000 0 -22018867.144 9163974.890 9095448.807 10 0 60904 80100.00000 0 -20853381.077 8569422.577 11972302.282 10 0 60904 81000.00000 0 -19470573.014 7677947.423 14617112.078 10 0 60904 81900.00000 0 -17931177.119 6478476.255 16978682.585 10 0 60904 82800.00000 0 -16298877.123 4972748.943 19011315.470 10 0 60904 83700.00000 0 -14637648.704 3175504.077 20675683.454 10 0 60904 84600.00000 0 -13009111.116 1114122.259 21939581.279 10 0 60904 85500.00000 0 -11469997.788 -1172258.965 22778540.482 10 0 60905 0.00000 0 -10069850.420 -3634122.640 23176297.111 10 0 60905 900.00000 0 -8849030.875 -6213388.005 23125104.253 10 0 60905 1800.00000 0 -7837134.467 -8845587.137 22625883.323 10 0 60905 2700.00000 0 -7051867.452 -11462318.558 21688211.929 10 0 60905 3600.00000 0 -6498436.788 -13993874.629 20330147.475 10 0 60905 4500.00000 0 -6169476.648 -16371936.631 18577889.388 10 0 60905 5400.00000 0 -6045514.884 -18532226.850 16465285.308 10 0 60905 6300.00000 0 -6095960.268 -20417008.440 14033189.395 10 0 60905 7200.00000 0 -6280569.573 -21977329.529 11328683.793 10 0 60905 8100.00000 0 -6551333.401 -23174918.109 8404176.968 10 0 60905 9000.00000 0 -6854701.790 -23983648.247 5316395.264 10 0 60905 9900.00000 0 -7134055.975 -24390515.565 2125286.510 10 0 60905 10800.00000 0 -7332321.755 -24396080.255 -1107143.435 10 0 60905 11700.00000 0 -7394613.430 -24014358.106 -4318038.537 10 0 60905 12600.00000 0 -7270795.453 -23272163.267 -7444920.844 10 0 60905 13500.00000 0 -6917851.987 -22207929.797 -10426914.480 10 0 60905 14400.00000 0 -6301962.376 -20870061.255 -13205940.541 10 0 60905 15300.00000 0 -5400192.840 -19314877.838 -15727858.473 10 0 60905 16200.00000 0 -4201730.926 -17604247.815 -17943530.618 10 0 60905 17100.00000 0 -2708608.670 -15803003.478 -19809788.256 10 0 60905 18000.00000 0 -935882.257 -13976251.026 -21290279.524 10 0 60905 18900.00000 0 1088740.912 -12186688.176 -22356182.230 10 0 60905 19800.00000 0 3325813.245 -10492042.741 -22986767.436 10 0 60905 20700.00000 0 5725558.779 -8942740.107 -23169802.829 10 0 60905 21600.00000 0 8229727.222 -7579897.494 -22901788.214 10 0 60905 22500.00000 0 10773813.010 -6433728.801 -22188018.903 10 0 60905 23400.00000 0 13289546.784 -5522426.213 -21042476.157 10 0 60905 24300.00000 0 15707555.249 -4851564.402 -19487547.310 10 0 60905 25200.00000 0 17960078.413 -4414050.893 -17553581.475 10 0 60905 26100.00000 0 19983630.775 -4190623.043 -15278290.000 10 0 60905 27000.00000 0 21721495.555 -4150868.954 -12706003.836 10 0 60905 27900.00000 0 23125948.133 -4254727.502 -9886802.762 10 0 60905 28800.00000 0 24160116.330 -4454402.576 -6875533.964 10 0 60905 29700.00000 0 24799400.578 -4696609.188 -3730739.594 10 0 60905 30600.00000 0 25032395.590 -4925055.332 -513514.664 10 0 60905 31500.00000 0 24861276.191 -5083053.741 2713682.028 10 0 60905 32400.00000 0 24301632.475 -5116152.486 5888240.457 10 0 60905 33300.00000 0 23381762.578 -4974672.902 8948611.704 10 0 60905 34200.00000 0 22141453.957 -4616047.527 11835496.500 10 0 60905 35100.00000 0 20630305.261 -4006859.479 14492987.213 10 0 60905 36000.00000 0 18905659.768 -3124497.446 16869641.705 10 0 60905 36900.00000 0 17030237.174 -1958356.740 18919469.031 10 0 60905 37800.00000 0 15069562.592 -510535.938 20602808.930 10 0 60905 38700.00000 0 13089299.596 1204000.486 21887089.228 10 0 60905 39600.00000 0 11152597.652 3157800.954 22747447.645 10 0 60905 40500.00000 0 9317563.332 5311832.243 23167207.004 10 0 60905 41400.00000 0 7634959.297 7616875.270 23138195.476 10 0 60905 42300.00000 0 6146225.583 10015354.761 22660906.107 10 0 60905 43200.00000 0 4881904.338 12443528.578 21744492.580 10 0 60905 44100.00000 0 3860532.665 14833947.658 20406600.922 10 0 60905 45000.00000 0 3088049.103 17118086.086 18673039.570 10 0 60905 45900.00000 0 2557738.134 19229033.537 16577293.082 10 0 60905 46800.00000 0 2250715.048 21104139.230 14159887.501 10 0 60905 47700.00000 0 2136931.022 22687497.910 11467618.262 10 0 60905 48600.00000 0 2176656.587 23932174.379 8552654.232 10 0 60905 49500.00000 0 2322381.397 24802073.304 5471534.114 10 0 60905 50400.00000 0 2521050.445 25273375.342 2284073.898 10 0 60905 51300.00000 0 2716542.281 25335478.380 -947793.800 10 0 60905 52200.00000 0 2852284.078 24991403.232 -4161225.954 10 0 60905 53100.00000 0 2873892.099 24257645.593 -7293696.956 10 0 60905 54000.00000 0 2731724.633 23163479.497 -10284223.403 10 0 60905 54900.00000 0 2383237.799 21749740.820 -13074561.015 10 0 60905 55800.00000 0 1795042.744 20067141.643 -15610349.221 10 0 60905 56700.00000 0 944575.379 18174186.294 -17842180.057 10 0 60905 57600.00000 0 -178693.799 16134776.924 -19726569.570 10 0 60905 58500.00000 0 -1572562.622 14015609.716 -21226812.014 10 0 60905 59400.00000 0 -3221943.818 11883471.577 -22313699.706 10 0 60905 60300.00000 0 -5099263.007 9802551.246 -22966094.244 10 0 60905 61200.00000 0 -7165392.374 7831877.935 -23171337.968 10 0 60905 62100.00000 0 -9371081.537 6022994.887 -22925497.813 10 0 60905 63000.00000 0 -11658826.087 4417965.028 -22233437.176 10 0 60905 63900.00000 0 -13965095.736 3047791.582 -21108714.792 10 0 60905 64800.00000 0 -16222828.907 1931318.756 -19573313.095 10 0 60905 65700.00000 0 -18364089.408 1074657.113 -17657201.801 10 0 60905 66600.00000 0 -20322774.009 471156.045 -15397745.755 10 0 60905 67500.00000 0 -22037257.701 101922.550 -12838969.022 10 0 60905 68400.00000 0 -23452866.122 -63137.513 -10030690.060 10 0 60905 69300.00000 0 -24524071.930 -63801.520 -7027545.351 10 0 60905 70200.00000 0 -25216323.684 52398.616 -3887920.977 10 0 60905 71100.00000 0 -25507431.320 232432.948 -672813.456 10 0 60905 72000.00000 0 -25388451.057 420261.169 2555357.530 10 0 60905 72900.00000 0 -24864033.691 559445.389 5733961.090 10 0 60905 73800.00000 0 -23952222.780 595776.973 8801368.010 10 0 60905 74700.00000 0 -22683712.225 479806.211 11698140.999 10 0 60905 75600.00000 0 -21100595.296 169167.967 14368179.490 10 0 60905 76500.00000 0 -19254658.069 -369394.608 16759797.338 10 0 60905 77400.00000 0 -17205289.004 -1158393.339 18826713.302 10 0 60905 78300.00000 0 -15017091.861 -2208413.973 20528936.178 10 0 60905 79200.00000 0 -12757301.052 -3517440.448 21833528.566 10 0 60905 80100.00000 0 -10493106.271 -5070713.201 22715235.652 10 0 60905 81000.00000 0 -8288996.579 -6841128.149 23156967.890 10 0 60905 81900.00000 0 -6204233.035 -8790160.846 23150129.057 10 0 60905 82800.00000 0 -4290553.505 -10869278.704 22694783.822 10 0 60905 83700.00000 0 -2590203.657 -13021784.203 21799661.621 10 0 60905 84600.00000 0 -1134374.813 -15185014.204 20481996.420 10 0 60905 85500.00000 0 57887.264 -17292805.625 18767204.655 99